Total_Precipitation_Accumulation
0.00 0.01 0.02 0.01 0.01 0.01 0.01 0.01 0.01 0.01 0.01 0.01 0.02 0.01 0.01 0.01 0.02 0.02 0.05 0.05 0.04 0.04 0.05 0.05 0.07 0.12 0.16 0.19 0.25 0.29 0.32 0.22 0.18 0.17 0.13 0.14 0.18 0.10 0.04 0.07 0.24 0.32 0.14
0.00 0.01 0.02 0.01 0.01 0.01 0.01 0.01 0.01 0.02 0.03 0.02 0.02 0.01 0.01 0.01 0.01 0.01 0.02 0.02 0.01 0.02 0.04 0.05 0.08 0.10 0.12 0.13 0.20 0.26 0.26 0.24 0.23 0.21 0.12 0.10 0.13 0.07 0.03 0.06 0.18 0.26 0.18
0.00 0.00 0.01 0.01 0.01 0.02 0.01 0.02 0.02 0.04 0.04 0.02 0.01 0.02 0.02 0.01 0.00 0.00 0.00 0.01 0.01 0.01 0.02 0.03 0.07 0.10 0.13 0.16 0.18 0.20 0.20 0.22 0.26 0.25 0.20 0.25 0.11 0.06 0.05 0.05 0.13 0.15 0.15
0.00 0.00 0.01 0.01 0.02 0.04 0.03 0.03 0.04 0.06 0.07 0.04 0.02 0.03 0.02 0.00 0.00 0.01 0.01 0.01 0.01 0.01 0.02 0.02 0.03 0.07 0.12 0.17 0.21 0.20 0.15 0.16 0.19 0.16 0.16 0.24 0.18 0.09 0.11 0.11 0.17 0.12 0.11
0.00 0.00 0.02 0.03 0.05 0.09 0.08 0.07 0.08 0.09 0.09 0.06 0.03 0.04 0.02 0.02 0.01 0.01 0.01 0.02 0.02 0.02 0.02 0.02 0.03 0.05 0.10 0.11 0.13 0.13 0.10 0.14 0.18 0.09 0.07 0.14 0.20 0.14 0.11 0.16 0.17 0.10 0.07
0.00 0.01 0.05 0.06 0.09 0.14 0.14 0.15 0.18 0.16 0.14 0.08 0.05 0.05 0.04 0.03 0.01 0.00 0.02 0.06 0.03 0.01 0.01 0.02 0.04 0.07 0.11 0.13 0.12 0.13 0.16 0.14 0.08 0.08 0.11 0.17 0.25 0.13 0.12 0.16 0.12 0.17 0.11
0.01 0.03 0.05 0.07 0.10 0.18 0.18 0.15 0.24 0.26 0.25 0.14 0.07 0.06 0.05 0.03 0.01 0.00 0.04 0.07 0.06 0.04 0.01 0.01 0.03 0.04 0.07 0.11 0.11 0.13 0.18 0.11 0.14 0.17 0.19 0.24 0.19 0.11 0.12 0.13 0.17 0.29 0.24
0.01 0.02 0.03 0.06 0.11 0.19 0.21 0.24 0.35 0.38 0.32 0.18 0.07 0.08 0.07 0.06 0.02 0.00 0.03 0.04 0.07 0.07 0.03 0.01 0.01 0.00 0.01 0.04 0.07 0.12 0.16 0.18 0.17 0.12 0.13 0.19 0.19 0.17 0.14 0.14 0.18 0.30 0.32
0.01 0.03 0.03 0.04 0.07 0.15 0.24 0.29 0.37 0.42 0.37 0.21 0.08 0.09 0.08 0.06 0.02 0.00 0.01 0.02 0.02 0.02 0.02 0.02 0.01 0.00 0.00 0.00 0.03 0.08 0.13 0.14 0.09 0.04 0.04 0.09 0.14 0.14 0.13 0.14 0.17 0.26 0.33
0.00 0.01 0.02 0.03 0.05 0.12 0.18 0.26 0.33 0.42 0.53 0.31 0.11 0.07 0.06 0.06 0.03 0.01 0.00 0.00 0.01 0.01 0.01 0.01 0.01 0.00 0.00 0.00 0.01 0.04 0.06 0.07 0.04 0.00 0.02 0.06 0.08 0.09 0.09 0.12 0.16 0.16 0.21
0.00 0.00 0.00 0.01 0.03 0.09 0.13 0.16 0.26 0.35 0.47 0.32 0.11 0.05 0.05 0.06 0.06 0.01 0.00 0.00 0.02 0.02 0.00 0.00 0.00 0.00 0.00 0.00 0.00 0.01 0.01 0.01 0.00 0.00 0.01 0.03 0.02 0.03 0.05 0.05 0.05 0.08 0.11
0.00 0.00 0.00 0.00 0.01 0.04 0.08 0.14 0.21 0.23 0.30 0.24 0.13 0.04 0.08 0.19 0.14 0.02 0.00 0.00 0.01 0.01 0.00 0.00 0.00 0.00 0.00 0.00 0.00 0.00 0.00 0.00 0.00 0.00 0.01 0.02 0.01 0.00 0.01 0.01 0.00 0.01 0.01
0.00 0.00 0.00 0.00 0.00 0.02 0.11 0.18 0.22 0.27 0.32 0.39 0.39 0.11 0.07 0.13 0.08 0.01 0.00 0.00 0.01 0.00 0.00 0.00 0.00 0.00 0.00 0.00 0.00 0.00 0.00 0.00 0.00 0.00 0.01 0.01 0.00 0.00 0.00 0.00 0.00 0.00 0.00
0.00 0.00 0.00 0.00 0.00 0.00 0.05 0.16 0.27 0.31 0.39 0.46 0.41 0.13 0.04 0.05 0.03 0.01 0.00 0.00 0.00 0.00 0.00 0.00 0.00 0.00 0.00 0.00 0.00 0.00 0.00 0.00 0.00 0.00 0.01 0.02 0.02 0.01 0.01 0.01 0.01 0.00 0.00
0.00 0.00 0.00 0.00 0.00 0.00 0.02 0.07 0.11 0.11 0.22 0.43 0.43 0.15 0.04 0.02 0.02 0.01 0.00 0.00 0.00 0.00 0.00 0.00 0.00 0.00 0.00 0.00 0.00 0.00 0.00 0.00 0.00 0.00 0.03 0.02 0.02 0.03 0.04 0.04 0.03 0.01 0.00
0.00 0.00 0.00 0.00 0.00 0.00 0.00 0.01 0.03 0.03 0.11 0.15 0.11 0.04 0.02 0.01 0.02 0.03 0.00 0.00 0.00 0.00 0.00 0.00 0.00 0.00 0.00 0.00 0.00 0.00 0.00 0.00 0.00 0.00 0.02 0.04 0.02 0.02 0.03 0.03 0.04 0.03 0.02
0.00 0.00 0.00 0.00 0.00 0.00 0.00 0.00 0.00 0.01 0.04 0.04 0.03 0.01 0.01 0.02 0.05 0.04 0.01 0.00 0.00 0.00 0.00 0.00 0.00 0.00 0.00 0.00 0.00 0.00 0.00 0.00 0.00 0.00 0.00 0.03 0.05 0.02 0.03 0.06 0.07 0.06 0.06
0.01 0.01 0.00 0.00 0.00 0.00 0.00 0.00 0.00 0.00 0.01 0.02 0.04 0.03 0.01 0.03 0.04 0.06 0.03 0.00 0.00 0.00 0.00 0.00 0.00 0.00 0.00 0.00 0.01 0.00 0.00 0.00 0.00 0.00 0.00 0.01 0.04 0.05 0.06 0.07 0.11 0.12 0.12
0.05 0.03 0.02 0.00 0.00 0.00 0.00 0.00 0.00 0.00 0.01 0.01 0.01 0.01 0.01 0.03 0.05 0.10 0.12 0.04 0.00 0.00 0.00 0.00 0.00 0.00 0.00 0.01 0.01 0.01 0.01 0.00 0.00 0.00 0.00 0.00 0.00 0.01 0.05 0.05 0.05 0.08 0.13
0.13 0.08 0.05 0.02 0.01 0.01 0.00 0.00 0.00 0.00 0.01 0.01 0.00 0.02 0.07 0.14 0.17 0.21 0.26 0.19 0.08 0.06 0.06 0.04 0.03 0.02 0.01 0.01 0.00 0.00 0.00 0.00 0.00 0.00 0.00 0.00 0.00 0.00 0.00 0.01 0.03 0.03 0.05
0.15 0.11 0.06 0.03 0.02 0.01 0.01 0.02 0.02 0.02 0.02 0.04 0.04 0.04 0.08 0.16 0.23 0.32 0.41 0.38 0.30 0.24 0.19 0.16 0.15 0.18 0.10 0.02 0.02 0.03 0.01 0.00 0.00 0.00 0.00 0.00 0.00 0.00 0.00 0.00 0.02 0.06 0.09
0.04 0.06 0.07 0.04 0.02 0.02 0.03 0.06 0.09 0.12 0.12 0.14 0.13 0.11 0.10 0.10 0.16 0.22 0.31 0.29 0.21 0.20 0.18 0.14 0.19 0.28 0.20 0.05 0.06 0.12 0.09 0.08 0.03 0.00 0.00 0.00 0.00 0.00 0.00 0.00 0.00 0.02 0.06
0.01 0.02 0.04 0.07 0.07 0.04 0.11 0.25 0.40 0.48 0.47 0.36 0.29 0.32 0.28 0.20 0.14 0.15 0.17 0.18 0.14 0.19 0.19 0.14 0.12 0.16 0.16 0.08 0.05 0.15 0.18 0.18 0.15 0.04 0.00 0.00 0.00 0.00 0.00 0.00 0.00 0.00 0.01
0.01 0.01 0.01 0.04 0.08 0.11 0.25 0.51 0.77 0.90 0.82 0.65 0.55 0.47 0.39 0.27 0.19 0.19 0.17 0.20 0.13 0.09 0.06 0.03 0.02 0.05 0.12 0.10 0.08 0.07 0.07 0.09 0.18 0.17 0.07 0.01 0.01 0.00 0.00 0.00 0.00 0.00 0.00
0.06 0.06 0.06 0.11 0.23 0.38 0.50 0.63 0.83 0.92 0.88 0.79 0.71 0.65 0.53 0.46 0.36 0.29 0.27 0.21 0.11 0.09 0.06 0.03 0.01 0.02 0.05 0.07 0.08 0.06 0.05 0.07 0.06 0.13 0.16 0.11 0.05 0.01 0.00 0.00 0.00 0.00 0.00
0.16 0.18 0.18 0.25 0.34 0.40 0.49 0.61 0.69 0.73 0.80 0.84 0.84 0.80 0.66 0.52 0.41 0.36 0.29 0.18 0.11 0.08 0.08 0.05 0.02 0.01 0.01 0.03 0.05 0.06 0.09 0.11 0.10 0.15 0.17 0.24 0.26 0.10 0.01 0.01 0.00 0.00 0.00